EW2960 Weather Reports


time (UTC)temp
C
wind
direction
speed
KPH
gust
KPH
rain 1hr
cm
rain 24hr
cm
rain mn
cm
humidity
%
barometer
mb
20260508035932 3 272 0.0 0.0 0.00 0.00 0.00 88 1009.9
20260508035429 3 272 0.0 0.0 0.00 0.00 0.00 87 1009.7
20260508034926 3 272 0.0 0.0 0.00 0.00 0.00 87 1009.9
20260508034424 3 272 0.0 0.0 0.00 0.00 0.00 87 1009.5
20260508033919 3 272 0.0 0.0 0.00 0.00 0.00 86 1009.8
20260508033418 3 272 0.0 0.0 0.00 0.00 0.00 85 1009.6
20260508032915 3 272 0.0 0.0 0.00 0.00 0.00 84 1009.7
20260508032412 3 272 0.0 0.0 0.00 0.00 0.00 83 1009.7
20260508031909 3 272 0.0 0.0 0.00 0.00 0.00 82 1009.8
20260508031407 4 272 0.0 0.0 0.00 0.00 0.00 82 1009.8
20260508030902 4 272 0.0 0.0 0.00 0.00 0.00 81 1009.7
20260508030359 4 272 0.0 0.0 0.00 0.00 0.00 80 1009.8
20260508025856 4 272 0.0 0.0 0.00 0.00 0.00 79 1009.8
20260508025353 5 272 0.0 0.0 0.00 0.00 0.00 79 1009.7
20260508024850 5 272 0.0 0.0 0.00 0.00 0.00 79 1009.7
20260508024347 5 272 0.0 0.0 0.00 0.00 0.00 79 1010.1
20260508023843 5 272 0.0 0.0 0.00 0.00 0.00 78 1009.8
20260508023340 5 272 0.0 0.0 0.00 0.00 0.00 78 1009.8
20260508022837 5 272 0.0 0.0 0.00 0.00 0.00 77 1009.9
20260508022333 5 272 0.0 0.0 0.00 0.00 0.00 75 1009.9
20260508021830 5 272 0.0 0.0 0.00 0.00 0.00 74 1009.6
20260508021326 5 272 0.0 0.0 0.00 0.00 0.00 73 1009.8
20260508020822 6 272 0.0 0.0 0.00 0.00 0.00 72 1009.7
20260508020320 6 272 0.0 0.0 0.00 0.00 0.00 70 1009.7
20260508015816 6 272 0.0 0.0 0.00 0.00 0.00 70 1009.7
20260508015314 6 271 0.0 0.0 0.00 0.00 0.00 68 1009.8
20260508014811 6 271 0.0 0.0 0.00 0.00 0.00 67 1009.7
20260508014308 7 272 0.0 0.0 0.00 0.00 0.00 66 1009.6
20260508013803 7 271 0.0 0.0 0.00 0.00 0.00 64 1009.5
20260508013300 7 271 0.0 0.0 0.00 0.00 0.00 63 1009.4
20260508012758 7 271 0.0 0.0 0.00 0.00 0.00 63 1009.6
20260508012255 7 271 0.0 0.0 0.00 0.00 0.00 63 1009.4
20260508011753 7 271 0.0 0.0 0.00 0.00 0.00 60 1009.4
20260508011250 7 271 0.0 0.0 0.00 0.00 0.00 58 1009.3
20260508010747 8 271 0.0 0.0 0.00 0.00 0.00 57 1009.2
20260508010244 8 271 0.0 0.0 0.00 0.00 0.00 57 1009.2
20260508005741 8 271 0.0 0.0 0.00 0.00 0.00 56 1009.2
20260508005238 8 271 0.0 0.0 0.00 0.00 0.00 55 1009.1
20260508004733 9 271 0.0 0.0 0.00 0.00 0.00 56 1009.0
20260508004230 9 271 0.0 0.0 0.00 0.00 0.00 55 1009.1
20260508003727 10 271 0.0 0.0 0.00 0.00 0.00 55 1009.1
20260508003224 10 271 0.0 0.0 0.00 0.00 0.00 53 1008.9
20260508002721 10 296 0.0 0.0 0.00 0.00 0.00 53 1008.7
20260508002218 10 307 0.0 0.0 0.00 0.00 0.00 54 1008.6
20260508001714 10 295 0.0 0.0 0.00 0.00 0.00 52 1008.9
20260508001209 11 290 0.0 0.0 0.00 0.00 0.00 51 1008.7
20260508000706 11 289 0.0 0.0 0.00 0.00 0.00 51 1008.6
20260508000204 11 314 3.2 3.2 0.00 0.00 0.00 51 1008.6
20260507235659 11 308 3.2 3.2 0.00 0.00 0.00 49 1008.5
20260507235157 11 326 0.0 0.0 0.00 0.00 0.00 57 1008.3
20260507234654 11 252 1.6 1.6 0.00 0.00 0.00 57 1008.4
20260507234150 11 274 0.0 0.0 0.00 0.00 0.00 57 1008.5
20260507233647 11 312 0.0 0.0 0.00 0.00 0.00 58 1008.5
20260507233145 11 302 3.2 4.8 0.00 0.00 0.00 58 1008.4
20260507232642 11 310 1.6 3.2 0.00 0.00 0.00 57 1008.4
20260507232139 11 280 0.0 0.0 0.00 0.00 0.00 58 1008.3
20260507231635 11 279 4.8 9.7 0.00 0.00 0.00 56 1008.1
20260507231132 11 309 9.7 11.3 0.00 0.00 0.00 56 1008.3
20260507230629 11 295 9.7 14.5 0.00 0.00 0.00 55 1008.2
20260507230127 12 169 3.2 3.2 0.00 0.00 0.00 58 1008.2
20260507225626 12 270 0.0 1.6 0.00 0.00 0.00 57 1008.2
20260507225123 12 277 4.8 6.4 0.00 0.00 0.00 55 1008.3
20260507224618 12 253 3.2 4.8 0.00 0.00 0.00 56 1008.3
20260507224115 12 300 1.6 1.6 0.00 0.00 0.00 54 1008.2
20260507223611 13 323 11.3 12.9 0.00 0.00 0.00 52 1008.2
20260507223108 13 226 1.6 4.8 0.00 0.00 0.00 55 1008.1
20260507222605 12 273 4.8 6.4 0.00 0.00 0.00 52 1008.2
20260507222102 12 265 3.2 3.2 0.00 0.00 0.00 51 1008.0
20260507221558 13 286 11.3 12.9 0.00 0.00 0.00 49 1007.8
20260507221055 13 310 3.2 3.2 0.00 0.00 0.00 50 1007.8
20260507220552 13 281 4.8 6.4 0.00 0.00 0.00 50 1007.7
20260507220049 13 276 1.6 3.2 0.00 0.00 0.00 49 1007.5
20260507215545 13 273 0.0 0.0 0.00 0.00 0.00 49 1007.5
20260507215044 13 229 4.8 4.8 0.00 0.00 0.00 49 1007.3
20260507214541 13 301 1.6 4.8 0.00 0.00 0.00 49 1007.2
20260507214036 14 320 3.2 4.8 0.00 0.00 0.00 47 1007.0
20260507213533 14 296 1.6 1.6 0.00 0.00 0.00 47 1007.1
20260507213030 13 269 3.2 3.2 0.00 0.00 0.00 48 1007.0
20260507212526 14 206 1.6 3.2 0.00 0.00 0.00 49 1006.8
20260507212023 14 283 3.2 4.8 0.00 0.00 0.00 45 1007.0
20260507211520 13 224 1.6 1.6 0.00 0.00 0.00 50 1006.9
20260507211016 14 323 1.6 1.6 0.00 0.00 0.00 47 1007.0
20260507210513 14 271 3.2 3.2 0.00 0.00 0.00 47 1006.8
20260507210010 15 302 6.4 9.7 0.00 0.00 0.00 45 1007.0
20260507205507 14 279 1.6 1.6 0.00 0.00 0.00 49 1007.1
20260507205003 15 330 1.6 1.6 0.00 0.00 0.00 46 1006.6
20260507204459 14 326 1.6 1.6 0.00 0.00 0.00 48 1006.9
20260507203957 14 293 4.8 4.8 0.00 0.00 0.00 48 1006.7
20260507203455 15 307 3.2 4.8 0.00 0.00 0.00 47 1007.0
20260507202951 13 291 3.2 4.8 0.00 0.00 0.00 46 1006.9
20260507202447 13 288 3.2 4.8 0.00 0.00 0.00 46 1006.8
20260507201943 14 216 3.2 4.8 0.00 0.00 0.00 45 1006.8
20260507201438 14 321 0.0 1.6 0.00 0.00 0.00 46 1006.9
20260507200936 14 281 1.6 1.6 0.00 0.00 0.00 46 1007.0
20260507200431 14 281 9.7 12.9 0.00 0.00 0.00 44 1007.0
20260507195927 14 179 6.4 6.4 0.00 0.00 0.00 45 1006.9
20260507195425 15 294 0.0 1.6 0.00 0.00 0.00 47 1007.2
20260507194922 16 302 0.0 0.0 0.00 0.00 0.00 42 1007.0
20260507194418 15 181 1.6 3.2 0.00 0.00 0.00 42 1007.2
20260507193914 15 283 0.0 1.6 0.00 0.00 0.00 43 1007.3
20260507193406 15 282 1.6 3.2 0.00 0.00 0.00 44 1007.3
20260507192903 15 274 1.6 3.2 0.00 0.00 0.00 46 1007.1
20260507192359 15 169 3.2 3.2 0.00 0.00 0.00 46 1007.1
20260507191856 15 306 1.6 1.6 0.00 0.00 0.00 45 1007.2
20260507191352 16 295 0.0 0.0 0.00 0.00 0.00 41 1007.2
20260507190849 15 271 1.6 1.6 0.00 0.00 0.00 46 1007.3
20260507190347 15 286 8.0 9.7 0.00 0.00 0.00 43 1007.2
20260507185845 15 224 3.2 4.8 0.00 0.00 0.00 44 1007.1
20260507185342 15 218 3.2 3.2 0.00 0.00 0.00 47 1007.1
20260507184839 15 280 0.0 0.0 0.00 0.00 0.00 44 1007.3
20260507184337 15 306 0.0 1.6 0.00 0.00 0.00 46 1007.4
20260507183833 14 329 0.0 0.0 0.00 0.00 0.00 46 1007.4
20260507183331 14 241 1.6 1.6 0.00 0.00 0.00 44 1007.2
20260507182828 15 309 1.6 1.6 0.00 0.00 0.00 46 1007.2
20260507182324 14 265 1.6 1.6 0.00 0.00 0.00 48 1007.3
20260507181820 13 292 0.0 0.0 0.00 0.00 0.00 47 1007.5
20260507181316 13 307 0.0 1.6 0.00 0.00 0.00 47 1007.3
20260507180813 14 315 1.6 3.2 0.00 0.00 0.00 44 1007.2
20260507180310 15 284 4.8 6.4 0.00 0.00 0.00 43 1007.2
20260507175806 15 247 1.6 1.6 0.00 0.00 0.00 46 1007.4
20260507175306 14 138 0.0 0.0 0.00 0.00 0.00 48 1007.3
20260507174800 13 309 1.6 3.2 0.00 0.00 0.00 47 1007.4
20260507174258 13 244 3.2 3.2 0.00 0.00 0.00 44 1007.6
20260507173755 14 71 3.2 6.4 0.00 0.00 0.00 44 1007.6
20260507173252 14 308 0.0 0.0 0.00 0.00 0.00 47 1007.6
20260507172748 14 260 0.0 1.6 0.00 0.00 0.00 50 1007.8
20260507172246 14 270 4.8 9.7 0.00 0.00 0.00 44 1008.1
20260507171741 13 315 3.2 3.2 0.00 0.00 0.00 48 1007.7
20260507171238 14 151 4.8 6.4 0.00 0.00 0.00 48 1007.8
20260507170735 13 266 0.0 0.0 0.00 0.00 0.00 48 1007.8
20260507170232 14 301 12.9 14.5 0.00 0.00 0.00 46 1007.8
20260507165727 14 132 9.7 12.9 0.00 0.00 0.00 46 1008.0
20260507165224 14 308 1.6 3.2 0.00 0.00 0.00 49 1008.1
20260507164720 14 240 1.6 1.6 0.00 0.00 0.00 46 1008.1
20260507164217 14 128 1.6 1.6 0.00 0.00 0.00 51 1007.7
20260507163714 14 250 1.6 3.2 0.00 0.00 0.00 50 1008.2
20260507163212 15 240 0.0 1.6 0.00 0.00 0.00 46 1007.8
20260507162708 13 253 1.6 1.6 0.00 0.00 0.00 49 1008.3
20260507162204 13 313 1.6 1.6 0.00 0.00 0.00 47 1008.1
20260507161700 14 308 0.0 0.0 0.00 0.00 0.00 47 1008.1
20260507161157 14 322 1.6 3.2 0.00 0.00 0.00 47 1008.2
20260507160653 13 292 1.6 3.2 0.00 0.00 0.00 48 1008.2
20260507160150 14 271 3.2 4.8 0.00 0.00 0.00 51 1008.2
20260507155646 15 169 3.2 3.2 0.00 0.00 0.00 47 1008.2
20260507155142 13 300 0.0 1.6 0.00 0.00 0.00 53 1008.3
20260507154639 14 205 3.2 3.2 0.00 0.00 0.00 51 1008.5
20260507154137 14 218 1.6 3.2 0.00 0.00 0.00 49 1008.6
20260507153633 13 310 1.6 1.6 0.00 0.00 0.00 50 1008.5
20260507153130 15 320 1.6 1.6 0.00 0.00 0.00 53 1008.2
20260507152626 15 247 0.0 0.0 0.00 0.00 0.00 47 1008.4
20260507152122 15 318 0.0 1.6 0.00 0.00 0.00 50 1008.5
20260507151618 14 278 1.6 3.2 0.00 0.00 0.00 50 1008.5
20260507151115 13 314 3.2 3.2 0.00 0.00 0.00 48 1008.5
20260507150612 14 260 0.0 1.6 0.00 0.00 0.00 48 1008.6
20260507150109 13 290 0.0 0.0 0.00 0.00 0.00 52 1008.6
20260507145603 15 293 0.0 0.0 0.00 0.00 0.00 54 1008.5
20260507145056 14 334 1.6 1.6 0.00 0.00 0.00 50 1008.6
20260507144552 13 223 1.6 1.6 0.00 0.00 0.00 51 1008.9
20260507144050 13 26 1.6 3.2 0.00 0.00 0.00 53 1008.9
20260507143547 13 177 1.6 3.2 0.00 0.00 0.00 56 1008.6
20260507143044 13 310 0.0 0.0 0.00 0.00 0.00 53 1008.7
20260507142539 13 280 0.0 1.6 0.00 0.00 0.00 57 1009.2
20260507142036 14 300 0.0 1.6 0.00 0.00 0.00 56 1008.9
20260507141532 14 245 1.6 1.6 0.00 0.00 0.00 55 1008.8
20260507141029 13 282 1.6 1.6 0.00 0.00 0.00 53 1009.0
20260507140526 13 269 3.2 3.2 0.00 0.00 0.00 57 1009.1
20260507140024 13 325 0.0 0.0 0.00 0.00 0.00 55 1009.2
20260507135520 13 317 0.0 1.6 0.00 0.00 0.00 62 1009.2
20260507135018 13 277 1.6 1.6 0.00 0.00 0.00 60 1009.3
20260507134514 12 78 1.6 3.2 0.00 0.00 0.00 62 1009.3
20260507134010 12 315 0.0 0.0 0.00 0.00 0.00 62 1009.3
20260507133506 13 34 1.6 1.6 0.00 0.00 0.00 61 1009.3
20260507133005 13 327 0.0 1.6 0.00 0.00 0.00 62 1009.5
20260507132501 12 185 3.2 3.2 0.00 0.00 0.00 62 1009.7
20260507131956 12 290 0.0 0.0 0.00 0.00 0.00 65 1009.6
20260507131454 12 279 0.0 0.0 0.00 0.00 0.00 64 1009.4
20260507130951 12 322 3.2 3.2 0.00 0.00 0.00 65 1009.3
20260507130448 12 318 0.0 0.0 0.00 0.00 0.00 62 1009.5
20260507125946 12 284 0.0 0.0 0.00 0.00 0.00 64 1009.6
20260507125444 12 156 1.6 3.2 0.00 0.00 0.00 64 1009.5
20260507124941 11 315 0.0 1.6 0.00 0.00 0.00 68 1009.6
20260507124437 11 114 3.2 3.2 0.00 0.00 0.00 67 1009.6
20260507123936 10 252 0.0 0.0 0.00 0.00 0.00 72 1009.4
20260507123433 10 283 0.0 1.6 0.00 0.00 0.00 74 1009.5
20260507122929 10 38 0.0 0.0 0.00 0.00 0.00 78 1009.3
20260507122424 9 39 1.6 1.6 0.00 0.00 0.00 81 1009.3
20260507121921 8 56 1.6 1.6 0.00 0.00 0.00 81 1009.7
20260507121416 7 35 0.0 0.0 0.00 0.00 0.00 87 1009.6
20260507120913 6 30 0.0 0.0 0.00 0.00 0.00 93 1009.5
20260507120410 6 30 0.0 0.0 0.00 0.00 0.00 96 1009.5
20260507115906 6 30 0.0 0.0 0.00 0.00 0.00 98 1009.7
20260507115402 5 30 0.0 0.0 0.00 0.00 0.00 99 1009.7
20260507114857 5 30 0.0 0.0 0.00 0.00 0.00 99 1009.6
20260507114355 4 29 0.0 0.0 0.00 0.00 0.00 99 1009.6
20260507113852 3 30 0.0 0.0 0.00 0.00 0.00 99 1009.6
20260507113349 3 22 0.0 0.0 0.00 0.00 0.00 99 1009.8
20260507112846 3 355 0.0 0.0 0.00 0.00 0.00 99 1009.8
20260507112343 2 346 0.0 0.0 0.00 0.00 0.00 99 1009.6
20260507111841 2 346 0.0 0.0 0.00 0.00 0.00 99 1009.6
20260507111338 2 346 0.0 0.0 0.00 0.00 0.00 99 1009.5
20260507110834 2 346 0.0 0.0 0.00 0.00 0.00 99 1009.4
20260507110330 2 346 0.0 0.0 0.00 0.00 0.00 99 1009.4
20260507105827 2 346 0.0 0.0 0.00 0.00 0.00 99 1009.4
20260507105324 2 346 0.0 0.0 0.00 0.00 0.00 99 1009.3
20260507104821 2 346 0.0 0.0 0.00 0.00 0.00 99 1009.1
20260507104317 2 346 0.0 0.0 0.00 0.00 0.00 99 1009.3
20260507103813 2 346 0.0 0.0 0.00 0.00 0.00 99 1009.5
20260507103310 2 346 0.0 0.0 0.00 0.00 0.00 99 1009.2
20260507102806 2 346 0.0 0.0 0.00 0.00 0.00 99 1009.5
20260507102306 2 346 0.0 0.0 0.00 0.00 0.00 99 1009.3
20260507101759 2 346 0.0 0.0 0.00 0.00 0.00 99 1009.1
20260507101259 2 327 0.0 0.0 0.00 0.00 0.00 99 1009.3
20260507100756 1 325 0.0 0.0 0.00 0.00 0.00 99 1009.1
20260507100255 1 325 0.0 0.0 0.00 0.00 0.00 99 1009.3
20260507095752 1 325 0.0 0.0 0.00 0.00 0.00 99 1009.2
20260507095249 1 325 0.0 0.0 0.00 0.00 0.00 99 1009.3
20260507094746 1 325 0.0 0.0 0.00 0.00 0.00 99 1009.4
20260507094243 1 325 0.0 0.0 0.00 0.00 0.00 99 1009.5
20260507093739 1 325 0.0 0.0 0.00 0.00 0.00 99 1009.3
20260507093238 1 325 0.0 0.0 0.00 0.00 0.00 99 1009.3
20260507092735 1 325 0.0 0.0 0.00 0.00 0.00 99 1009.3
20260507092231 1 325 0.0 0.0 0.00 0.00 0.00 99 1009.5
20260507091728 1 325 0.0 0.0 0.00 0.00 0.00 99 1009.2
20260507091224 1 325 0.0 0.0 0.00 0.00 0.00 99 1009.4
20260507090720 2 326 0.0 0.0 0.00 0.00 0.00 99 1009.3
20260507090217 2 325 0.0 0.0 0.00 0.00 0.00 99 1009.5
20260507085714 2 325 0.0 0.0 0.00 0.00 0.00 99 1009.2
20260507085211 2 325 0.0 0.0 0.00 0.00 0.00 99 1009.5
20260507084708 2 325 0.0 0.0 0.00 0.00 0.00 99 1009.5
20260507084204 2 325 0.0 0.0 0.00 0.00 0.00 99 1009.6
20260507083702 2 325 0.0 0.0 0.00 0.00 0.00 99 1009.5
20260507083158 2 325 0.0 0.0 0.00 0.00 0.00 99 1009.7
20260507082654 2 325 0.0 0.0 0.00 0.00 0.00 99 1009.5
20260507082150 2 325 0.0 0.0 0.00 0.00 0.00 99 1009.5
20260507081647 2 325 0.0 0.0 0.00 0.00 0.00 99 1009.6
20260507081143 2 325 0.0 0.0 0.00 0.00 0.00 99 1009.8
20260507080640 2 325 0.0 0.0 0.00 0.00 0.00 99 1009.7
20260507080136 2 325 0.0 0.0 0.00 0.00 0.00 99 1009.6
20260507075631 2 325 0.0 0.0 0.00 0.00 0.00 98 1009.6
20260507075128 2 325 0.0 0.0 0.00 0.00 0.00 98 1009.6
20260507074625 2 325 0.0 0.0 0.00 0.00 0.00 98 1009.8
20260507074123 2 325 0.0 0.0 0.00 0.00 0.00 98 1009.7
20260507073619 2 325 0.0 0.0 0.00 0.00 0.00 98 1009.8
20260507073115 2 325 0.0 0.0 0.00 0.00 0.00 98 1009.5
20260507072613 2 325 0.0 0.0 0.00 0.00 0.00 98 1009.8
20260507072110 2 325 0.0 0.0 0.00 0.00 0.00 97 1009.7
20260507071607 2 325 0.0 0.0 0.00 0.00 0.00 97 1009.8
20260507071104 2 325 0.0 0.0 0.00 0.00 0.00 97 1009.6
20260507070601 2 325 0.0 0.0 0.00 0.00 0.00 97 1009.7
20260507070058 2 325 0.0 0.0 0.00 0.00 0.00 97 1009.9
20260507065554 2 325 0.0 0.0 0.00 0.00 0.00 96 1009.7
20260507065051 3 325 0.0 0.0 0.00 0.00 0.00 96 1009.8
20260507064549 3 325 0.0 0.0 0.00 0.00 0.00 96 1009.8
20260507064048 3 325 0.0 0.0 0.00 0.00 0.00 96 1010.1
20260507063544 3 325 0.0 0.0 0.00 0.00 0.00 95 1009.8
20260507063042 3 325 0.0 0.0 0.00 0.00 0.00 95 1010.0
20260507062538 3 325 0.0 0.0 0.00 0.00 0.00 95 1009.9
20260507062036 3 325 0.0 0.0 0.00 0.00 0.00 94 1009.9
20260507061533 3 325 0.0 0.0 0.00 0.00 0.00 94 1010.0
20260507061031 4 325 0.0 0.0 0.00 0.00 0.00 93 1010.0
20260507060529 4 325 0.0 0.0 0.00 0.00 0.00 93 1010.2
20260507060025 4 325 0.0 0.0 0.00 0.00 0.00 92 1010.0
20260507055520 4 325 0.0 0.0 0.00 0.00 0.00 92 1010.1
20260507055016 4 325 0.0 0.0 0.00 0.00 0.00 90 1010.2
20260507054513 5 325 0.0 0.0 0.00 0.00 0.00 90 1010.1
20260507054010 5 325 0.0 0.0 0.00 0.00 0.00 90 1010.2
20260507053508 5 325 0.0 0.0 0.00 0.00 0.00 89 1010.2
20260507053006 5 325 0.0 0.0 0.00 0.00 0.00 88 1010.3
20260507052504 5 325 0.0 0.0 0.00 0.00 0.00 87 1010.4
20260507052000 5 325 0.0 0.0 0.00 0.00 0.00 86 1010.2
20260507051458 6 325 0.0 0.0 0.00 0.00 0.00 85 1010.2
20260507050954 6 325 0.0 0.0 0.00 0.00 0.00 84 1010.1
20260507050450 6 325 0.0 0.0 0.00 0.00 0.00 83 1010.1
20260507045948 6 325 0.0 0.0 0.00 0.00 0.00 82 1010.1
20260507045444 6 325 0.0 0.0 0.00 0.00 0.00 80 1010.3
20260507044942 6 325 0.0 0.0 0.00 0.00 0.00 79 1010.2
20260507044438 7 325 0.0 0.0 0.00 0.00 0.00 78 1010.4
20260507043934 7 325 0.0 0.0 0.00 0.00 0.00 77 1010.6
20260507043430 7 325 0.0 0.0 0.00 0.00 0.00 75 1010.4
20260507042927 7 325 0.0 0.0 0.00 0.00 0.00 75 1010.6
20260507042424 7 325 0.0 0.0 0.00 0.00 0.00 74 1010.4
20260507041919 7 325 0.0 0.0 0.00 0.00 0.00 74 1010.6
20260507041416 7 325 0.0 0.0 0.00 0.00 0.00 75 1010.4
20260507040914 7 325 0.0 0.0 0.00 0.00 0.00 74 1010.8
20260507040409 7 325 0.0 0.0 0.00 0.00 0.00 74 1010.7